{"data":{"norad_id":59869,"epoch":"2026-05-25T04:42:45.370080Z","epoch_age_seconds":55099,"freshness":"FRESH","line1":"1 59869U 24098M   26145.19635845  .00001820  00000+0  75673-4 0  9991","line2":"2 59869  43.0005 206.2010 0001296 269.1298  90.9405 15.27569275113547","mean_motion":15.27569275,"eccentricity":0.0001296,"inclination_deg":43.0005,"raan_deg":206.201,"arg_perigee_deg":269.1298,"mean_anomaly_deg":90.9405,"bstar":7.5673e-5,"rev_number":11354,"period_min":94.267410556552,"perigee_km":482.19199685574,"apogee_km":483.97042461596,"semimajor_km":6861.2182107358,"source":"CELESTRAK","updated_at":"2026-05-25T13:38:19.092605Z"}}